RH
37 35 32 32 51 63 63 60 62 73 84 97 100 93 80 85 78 66 74 73 59 51 50 49 44 34 29 33 36 34 35 36 41 38 37 36 40 37 32 34 37 42 42
41 35 37 49 72 84 68 69 82 99 100 100 97 82 78 78 72 84 89 53 51 49 47 40 32 31 33 33 34 33 32 35 42 45 55 55 55 48 52 50 46 42 46
50 51 57 69 77 81 77 92 98 93 99 99 85 77 82 76 95 61 57 72 50 45 37 38 50 46 39 30 28 29 35 40 50 69 76 76 80 67 65 58 59 46 50
80 76 66 82 83 83 91 78 88 94 93 89 76 78 85 87 84 78 53 46 49 48 74 89 86 38 27 23 30 37 47 66 75 79 80 90 88 73 72 77 72 57 67
94 95 94 96 95 92 86 95 94 92 86 85 85 92 88 79 62 50 49 72 94 98 90 53 28 22 21 30 43 54 74 80 79 87 95 94 87 86 82 75 79 77 79
100 95 94 94 94 97 92 92 92 80 82 83 85 88 89 90 94 97 100 99 89 74 38 23 19 21 25 32 44 81 84 88 92 92 94 95 90 84 80 81 94 93 100
99 98 100 86 88 90 91 85 77 78 78 88 90 94 99 99 99 100 67 39 36 30 22 18 19 20 25 36 47 53 65 87 92 94 95 92 86 80 89 93 96 100 99
99 95 90 88 88 78 71 81 88 94 90 94 100 98 100 99 57 51 38 36 28 21 21 21 20 23 27 34 57 88 89 88 91 93 87 85 90 92 97 99 98 94 87
96 87 76 73 80 83 89 96 100 100 100 99 100 99 99 62 40 38 35 26 24 24 22 25 32 30 25 61 91 95 99 93 87 80 84 97 100 100 99 98 84 94 88
81 79 88 100 100 99 100 99 100 100 99 95 77 38 39 42 38 33 28 24 25 29 26 28 24 22 48 94 96 100 98 88 83 90 89 82 79 73 77 84 91 100 97
98 100 100 100 100 100 100 98 72 68 53 40 39 41 42 37 33 34 38 49 56 50 34 21 21 36 94 99 97 96 91 92 99 92 80 72 74 74 77 80 85 94 98
100 100 99 100 88 59 50 52 56 48 37 38 41 40 35 30 29 32 30 24 29 38 26 29 50 93 100 99 80 56 97 98 75 76 79 78 80 78 78 80 81 85 89
100 90 58 48 49 62 68 47 36 38 40 41 37 28 25 23 23 21 17 19 24 36 52 83 99 92 84 63 49 52 59 76 81 82 84 85 88 85 81 81 81 80 80
48 52 58 70 58 42 36 35 39 42 39 26 20 20 22 21 16 19 25 31 44 64 84 95 96 83 60 52 52 61 79 83 87 91 91 88 86 86 86 87 86 86 88
60 55 51 47 39 34 36 41 42 32 22 21 21 19 17 20 27 51 66 78 94 98 99 91 64 48 46 47 60 78 80 82 86 92 92 88 90 92 88 87 88 92 97
54 52 45 34 33 37 42 36 24 20 21 21 16 15 28 35 70 67 79 99 96 100 78 60 54 53 53 60 80 79 82 85 89 91 92 95 96 96 95 91 96 95 93
54 40 30 33 40 41 25 21 23 24 19 16 18 25 33 40 45 72 59 64 54 58 56 55 54 54 59 82 86 87 86 88 91 94 93 94 96 98 99 93 93 95 94
30 30 37 43 31 22 22 22 18 14 14 20 26 30 37 44 66 56 50 48 49 53 54 54 53 62 85 88 89 90 90 91 92 92 95 98 96 97 96 96 96 99 98
33 43 39 25 21 22 21 15 12 16 22 27 32 40 44 50 57 52 51 50 53 52 52 54 68 87 89 92 92 93 96 94 97 99 96 96 96 97 96 99 97 95 98
45 33 23 21 22 20 14 12 19 24 28 34 40 42 45 46 47 48 49 54 56 56 57 71 89 91 92 92 94 96 94 93 95 95 95 97 99 98 98 98 98 98 95
32 23 22 23 19 13 14 19 24 28 35 40 45 50 58 54 53 51 50 56 59 62 78 90 91 92 92 93 97 96 94 94 96 96 97 100 97 94 98 97 96 96 98
23 22 23 20 13 14 19 23 28 33 38 43 48 51 55 57 55 52 55 60 67 88 94 93 92 92 94 97 100 98 93 94 95 96 98 97 91 94 98 97 97 96 97
22 23 20 13 14 19 23 28 33 39 44 49 52 53 56 56 54 53 56 62 78 91 94 95 94 91 94 97 100 100 98 96 94 97 98 94 94 95 97 97 97 95 96
24 22 13 14 18 20 26 34 40 44 49 53 55 56 58 58 56 52 57 63 83 90 93 94 96 98 97 98 98 94 94 98 98 93 98 99 98 97 99 97 95 95 98
23 14 13 16 20 26 34 40 45 50 54 55 56 56 59 59 55 52 58 62 81 85 87 91 96 96 97 100 98 91 92 96 99 98 98 98 97 99 96 96 95 96 96
16 13 16 19 26 34 39 45 51 54 55 56 57 58 60 58 53 52 54 60 80 82 85 89 92 95 96 96 95 89 94 100 94 95 96 98 97 94 94 95 94 96 96
Wind_Speed
23 28 32 31 34 40 44 39 39 38 38 36 37 38 39 37 33 28 24 20 19 15 14 12 13 14 16 18 20 21 21 23 29 33 32 32 33 34 34 32 32 31 29
26 27 31 28 28 36 34 33 34 31 32 35 38 39 37 33 28 25 20 20 17 13 11 12 12 15 17 19 21 22 23 23 28 33 33 32 34 34 34 36 32 29 32
25 28 27 26 28 28 27 27 27 28 32 33 37 38 34 30 26 23 19 13 14 12 11 12 15 18 20 21 22 24 24 25 26 29 33 33 34 35 37 36 36 36 33
20 25 25 25 27 27 28 28 26 27 30 33 35 32 27 22 19 16 14 14 11 13 16 18 19 20 22 22 22 23 24 25 25 28 31 32 34 36 38 40 41 37 36
23 26 27 28 28 27 26 26 26 27 27 28 28 24 22 21 19 15 12 13 14 17 18 16 19 20 21 21 21 22 22 24 26 27 29 32 36 38 41 40 40 38 38
18 23 24 24 24 26 26 26 25 24 25 25 21 20 18 14 12 13 15 17 13 13 15 17 18 20 20 21 20 18 19 22 24 27 30 33 38 40 39 37 35 37 41
18 21 23 18 25 25 24 22 21 22 22 20 19 15 13 12 12 16 10 8 11 13 15 18 19 21 21 21 22 24 21 20 22 25 31 34 37 36 32 33 33 33 38
13 16 21 22 22 21 23 19 18 17 17 17 17 16 12 8 6 8 11 12 13 14 16 18 20 20 20 20 20 20 22 24 26 29 33 35 34 30 30 31 35 39 38
8 12 15 14 16 16 16 16 17 20 18 13 10 8 3 5 10 12 12 11 11 14 16 16 18 20 20 18 19 21 25 28 29 31 30 26 25 26 28 30 31 31 38
15 17 15 16 19 20 20 22 19 15 11 9 6 6 5 7 7 7 12 14 16 18 18 18 21 23 20 16 19 25 30 32 29 26 29 30 29 27 25 23 25 30 34
18 19 19 21 22 21 16 13 13 11 9 7 5 5 5 6 7 8 10 15 18 21 23 24 23 20 16 18 20 24 27 22 26 29 30 27 27 27 25 24 27 29 32
19 19 19 19 19 16 14 12 9 7 7 5 3 4 6 8 10 12 15 17 18 22 23 22 20 18 19 21 23 21 19 21 23 24 25 27 28 27 26 28 28 28 28
17 19 19 18 16 12 9 10 7 5 2 2 3 5 8 11 14 17 17 17 19 19 19 18 19 22 24 25 21 19 18 18 20 23 25 27 27 28 28 28 28 28 31
18 17 15 12 13 11 8 6 3 2 2 3 6 9 12 13 13 14 15 17 18 19 18 21 23 25 23 20 17 14 14 16 20 23 25 27 27 28 29 30 33 32 36
14 14 13 10 8 7 5 3 1 2 4 7 9 10 11 12 13 12 14 17 18 17 20 23 23 20 17 16 14 13 15 18 20 23 25 26 27 30 31 31 31 33 34
13 12 10 7 6 3 1 2 4 6 7 9 10 11 12 13 11 13 15 14 16 14 18 20 18 17 17 16 16 17 18 20 22 24 23 26 30 31 33 33 31 30 33
8 8 7 4 3 2 2 2 4 6 8 9 9 10 11 12 14 14 15 15 15 15 16 16 16 16 15 15 17 19 22 22 23 21 25 28 29 31 32 32 31 31 35
7 7 5 4 2 0 2 5 7 8 8 9 10 11 12 12 12 14 14 15 14 13 14 14 14 14 14 16 19 21 23 23 19 22 26 28 27 30 33 32 32 34 35
6 4 3 1 1 4 6 7 8 9 10 10 11 10 11 12 12 13 14 15 15 15 14 12 12 13 15 17 20 22 23 20 20 24 25 27 30 33 33 34 34 33 34
4 2 1 2 5 6 8 8 9 10 11 11 11 11 11 12 11 13 14 14 14 14 13 12 12 14 16 19 21 22 21 17 21 24 26 30 33 34 35 36 36 35 36
2 1 2 5 7 8 8 9 10 10 11 12 11 11 11 12 13 14 14 13 13 13 12 13 14 16 18 20 21 23 20 18 21 24 27 33 35 36 34 33 34 33 34
2 3 5 7 8 8 10 11 11 12 12 12 12 12 11 11 12 13 12 11 10 11 13 14 16 17 18 20 23 23 19 19 22 24 30 34 35 34 34 34 33 32 35
4 6 7 8 9 10 11 12 12 12 12 12 13 12 11 11 12 11 11 10 9 10 11 14 16 17 17 20 22 21 19 19 22 24 32 33 35 34 34 34 34 33 34
6 8 8 9 11 12 12 13 12 12 13 13 12 12 11 11 12 11 10 10 9 10 12 14 16 18 18 21 22 19 17 18 22 23 34 30 35 35 36 35 32 33 34
8 9 9 11 12 13 13 13 13 13 13 13 12 11 10 12 12 11 11 10 10 11 12 14 17 19 19 21 22 18 16 17 20 22 26 29 33 35 33 30 31 31 30
9 9 11 12 13 13 13 13 12 12 12 12 12 11 12 12 12 11 11 11 12 12 14 16 17 19 20 21 21 17 16 18 19 22 25 30 32 29 27 29 30 29 30
Wind_Direction
257 247 250 255 247 234 227 230 235 235 230 232 225 218 217 219 212 208 213 213 235 232 239 255 271 280 285 288 288 287 287 289 288 294 298 303 305 307 307 308 311 309 305
259 246 244 246 237 224 225 230 227 227 228 224 217 214 215 209 206 213 207 213 232 244 258 267 279 287 290 288 288 290 290 290 293 298 303 307 309 313 314 314 313 312 309
260 248 237 231 221 221 220 219 218 223 222 217 213 213 210 203 204 191 202 220 233 250 264 282 291 289 289 288 289 290 292 294 296 299 303 309 310 315 316 316 318 317 314
248 228 231 213 210 213 206 217 214 215 214 210 205 203 204 192 194 202 198 220 246 262 278 290 304 289 286 288 289 292 295 295 296 298 302 307 310 314 316 318 317 315 315
214 206 200 200 203 194 194 199 203 203 204 204 195 191 180 176 184 201 217 239 264 280 300 298 282 284 286 289 291 293 290 292 297 302 304 306 307 312 314 314 312 315 315
213 194 188 184 191 185 188 194 194 191 186 181 172 178 182 179 206 228 258 270 285 298 279 280 282 285 286 284 283 280 288 295 299 298 300 300 304 307 310 311 311 313 313
178 174 175 194 185 183 181 175 170 166 166 170 167 163 186 206 240 254 266 283 281 283 288 288 290 291 291 291 290 292 294 290 290 293 293 297 301 306 311 308 310 308 302
160 156 163 169 168 156 154 154 156 154 157 152 166 184 211 223 255 277 279 282 284 291 294 298 296 297 300 302 303 301 299 295 293 294 298 302 305 309 307 304 300 297 298
144 138 135 145 143 147 150 146 154 157 161 169 177 185 203 243 254 268 279 285 300 302 303 301 302 307 311 312 306 303 299 297 298 300 299 295 294 294 296 296 297 302 303
134 140 146 145 142 136 143 146 152 155 148 145 153 185 221 247 267 295 308 309 311 309 307 309 311 312 312 315 308 303 301 300 309 306 301 303 302 302 302 298 303 304 305
138 131 130 129 130 133 138 139 134 128 137 151 187 220 249 272 281 299 316 312 311 308 310 311 310 314 317 309 302 295 297 310 299 295 301 307 309 309 308 306 307 306 304
121 124 126 127 121 124 126 123 132 157 176 182 218 264 271 286 298 300 298 301 295 297 306 312 316 322 307 306 308 310 306 298 302 308 311 314 317 317 314 310 308 305 302
123 122 118 120 122 129 142 146 157 157 186 238 258 274 293 298 296 296 298 300 305 313 320 318 306 307 312 313 313 310 308 309 311 315 319 322 322 320 316 317 315 312 305
124 121 126 134 138 137 137 145 162 195 258 290 298 296 293 297 304 305 307 312 320 325 323 312 312 311 308 310 312 310 312 319 324 323 322 324 323 324 323 323 320 321 315
134 135 136 134 134 139 147 152 212 298 299 295 294 303 309 313 320 323 325 327 331 320 297 300 307 314 320 321 324 326 328 328 328 328 328 328 328 328 326 327 326 325 321
140 139 139 141 142 147 167 270 270 282 304 318 322 323 319 323 324 318 320 323 307 314 307 315 322 325 327 330 333 332 333 333 333 332 331 333 333 332 331 333 331 327 325
146 142 141 147 172 209 236 296 313 315 315 310 310 309 309 306 311 314 320 319 320 316 320 323 326 329 332 334 333 333 335 337 335 335 336 337 337 337 336 334 335 333 330
158 162 172 179 170 337 317 314 313 309 309 313 316 318 316 315 313 320 322 325 324 328 330 331 333 334 336 334 333 335 336 336 337 340 342 341 341 338 336 336 334 333 333
165 164 157 151 312 315 318 317 315 317 320 323 326 324 319 319 324 326 326 329 332 336 336 339 338 338 336 333 334 334 334 337 341 341 341 344 342 338 338 339 337 336 334
163 161 164 309 314 316 315 317 320 322 323 323 327 328 324 325 326 329 334 335 335 336 338 340 340 339 336 334 333 334 336 338 340 341 342 343 341 340 339 338 338 337 339
177 220 300 309 312 315 319 320 321 324 325 326 328 328 322 322 327 330 333 335 336 337 338 340 342 340 335 333 333 336 335 337 341 341 342 342 341 341 341 340 339 339 342
238 287 302 309 314 319 322 323 323 324 324 324 322 321 319 320 326 327 330 332 333 337 336 338 340 338 333 334 335 334 332 333 338 340 342 343 344 345 345 343 342 341 341
275 299 312 315 320 322 322 322 322 322 322 321 318 319 318 318 324 324 325 326 332 334 332 334 334 333 333 335 335 329 326 330 335 337 342 343 342 340 338 336 336 338 340
299 310 313 317 319 320 321 321 321 322 319 316 316 314 312 314 320 323 322 323 324 323 325 327 331 333 330 334 335 330 327 331 337 337 343 337 334 334 333 333 335 335 336
303 309 315 317 317 319 320 322 320 318 316 315 314 309 308 313 317 318 316 315 314 313 317 324 329 330 329 330 334 330 328 333 342 338 336 331 329 332 335 339 340 333 336
304 310 315 318 318 320 321 319 317 315 315 313 310 308 308 313 315 317 314 311 310 312 321 325 324 326 329 328 332 327 330 336 339 339 333 333 335 338 341 341 340 337 341